CW8198 Weather Reports


time (UTC)temp
C
wind
direction
speed
KPH
gust
KPH
rain 1hr
cm
rain 24hr
cm
rain mn
cm
humidity
%
barometer
mb
20260903215639 35 182 11.3 27.4 0.00 0.18 0.18 52 1008.1
20260903215139 35 160 16.1 27.4 0.00 0.18 0.18 51 1008.3
20260903214638 35 155 11.3 24.1 0.00 0.18 0.18 52 1008.0
20260903214139 35 203 9.7 19.3 0.00 0.18 0.18 52 1008.1
20260903213638 35 207 9.7 19.3 0.00 0.18 0.18 51 1008.1
20260903212637 35 128 12.9 25.7 0.00 0.18 0.18 51 1008.1
20260903212138 35 202 14.5 30.6 0.00 0.18 0.18 50 1008.1
20260903211636 35 209 11.3 30.6 0.00 0.18 0.18 49 1008.1
20260903211136 35 126 17.7 30.6 0.00 0.18 0.18 49 1008.1
20260903210136 35 187 12.9 27.4 0.00 0.18 0.18 50 1008.2
20260903205636 35 229 9.7 25.7 0.00 0.18 0.18 51 1008.3
20260903205135 35 155 11.3 25.7 0.00 0.18 0.18 51 1008.1
20260903204636 35 193 12.9 24.1 0.00 0.18 0.18 50 1008.3
20260903204136 35 167 12.9 24.1 0.00 0.18 0.18 51 1008.3
20260903203634 35 183 12.9 20.9 0.00 0.18 0.18 52 1008.4
20260903203135 35 75 12.9 20.9 0.00 0.18 0.18 51 1008.4
20260903202634 35 185 8.0 25.7 0.00 0.18 0.18 51 1008.4
20260903202136 35 162 12.9 25.7 0.00 0.18 0.18 51 1008.6
20260903201634 35 198 14.5 25.7 0.00 0.18 0.18 50 1008.6
20260903201134 35 193 9.7 22.5 0.00 0.18 0.18 52 1008.7
20260903200634 34 182 11.3 22.5 0.00 0.18 0.18 53 1008.7
20260903200133 34 205 11.3 29.0 0.00 0.18 0.18 55 1008.7
20260903195633 34 198 8.0 29.0 0.00 0.18 0.18 55 1008.8
20260903195134 34 223 11.3 30.6 0.00 0.18 0.18 56 1008.8
20260903194633 34 190 16.1 30.6 0.00 0.18 0.18 55 1008.8
20260903194133 33 140 11.3 20.9 0.00 0.18 0.18 56 1009.0
20260903193633 33 207 8.0 22.5 0.00 0.18 0.18 57 1009.0
20260903193132 33 195 9.7 22.5 0.00 0.18 0.18 57 1009.1
20260903192632 33 156 8.0 22.5 0.00 0.18 0.18 57 1009.1
20260903192134 33 162 9.7 24.1 0.00 0.18 0.18 58 1009.0
20260903191632 33 178 11.3 24.1 0.00 0.18 0.18 57 1009.0
20260903190632 33 153 11.3 25.7 0.00 0.18 0.18 58 1009.1
20260903190131 33 169 12.9 24.1 0.00 0.18 0.18 58 1009.3
20260903185631 33 154 8.0 20.9 0.00 0.18 0.18 58 1009.4
20260903184630 32 147 9.7 22.5 0.00 0.18 0.18 58 1009.4
20260903184130 32 189 11.3 25.7 0.00 0.18 0.18 58 1009.7
20260903183630 32 162 11.3 25.7 0.00 0.18 0.18 59 1009.7
20260903183130 32 151 9.7 20.9 0.00 0.18 0.18 58 1009.7
20260903182630 32 195 9.7 19.3 0.00 0.18 0.18 60 1009.8
20260903182132 32 187 8.0 19.3 0.00 0.18 0.18 60 1009.8
20260903181630 32 195 11.3 19.3 0.00 0.18 0.18 58 1010.0
20260903181129 32 126 11.3 20.9 0.00 0.18 0.18 57 1009.9
20260903180129 32 196 9.7 22.5 0.00 0.18 0.18 59 1010.3
20260903175628 32 217 8.0 27.4 0.00 0.18 0.18 58 1010.4
20260903175129 32 182 12.9 27.4 0.00 0.18 0.18 58 1010.3
20260903174628 32 135 9.7 17.7 0.00 0.18 0.18 59 1010.3
20260903172628 31 187 8.0 20.9 0.00 0.18 0.18 62 1010.4
20260903172129 31 195 9.7 19.3 0.00 0.18 0.18 61 1010.2
20260903171127 30 147 8.0 19.3 0.00 0.18 0.18 64 1010.3
20260903170627 30 175 9.7 17.7 0.00 0.18 0.18 65 1010.3
20260903170126 30 225 8.0 16.1 0.00 0.18 0.18 67 1010.4
20260903165626 29 189 8.0 16.1 0.00 0.18 0.18 68 1010.4
20260903165125 28 186 9.7 16.1 0.00 0.18 0.18 69 1010.5
20260903164626 28 123 6.4 14.5 0.00 0.18 0.18 71 1010.5
20260903164126 28 137 6.4 14.5 0.00 0.18 0.18 70 1010.6
20260903163626 28 178 6.4 16.1 0.00 0.18 0.18 69 1010.6
20260903163126 28 135 8.0 17.7 0.00 0.18 0.18 68 1010.6
20260903162625 28 178 6.4 11.3 0.00 0.18 0.18 69 1010.6
20260903162126 28 175 4.8 14.5 0.00 0.18 0.18 70 1010.8
20260903161124 27 144 6.4 14.5 0.00 0.18 0.18 70 1010.5
20260903160625 27 128 6.4 14.5 0.00 0.18 0.18 70 1010.6
20260903160124 27 128 6.4 12.9 0.00 0.18 0.18 70 1010.5
20260903155624 27 178 3.2 14.5 0.00 0.18 0.18 70 1010.5
20260903155123 27 137 6.4 14.5 0.00 0.18 0.18 70 1010.5
20260903154624 27 118 6.4 12.9 0.00 0.18 0.18 71 1010.5
20260903154123 27 51 4.8 17.7 0.00 0.18 0.18 71 1010.5
20260903153123 27 165 9.7 16.1 0.00 0.18 0.18 72 1010.4
20260903152622 27 178 6.4 16.1 0.00 0.18 0.18 73 1010.6
20260903152125 27 160 9.7 19.3 0.00 0.18 0.18 73 1010.5
20260903151622 27 129 6.4 19.3 0.00 0.18 0.18 72 1010.5
20260903150622 26 130 9.7 16.1 0.03 0.18 0.18 75 1010.6
20260903145621 26 108 3.2 8.0 0.03 0.18 0.18 78 1010.7
20260903145121 26 126 3.2 4.8 0.03 0.18 0.18 77 1010.9
20260903144620 26 51 1.6 3.2 0.03 0.18 0.18 78 1011.1
20260903144121 26 239 1.6 6.4 0.03 0.18 0.18 77 1011.1
20260903143621 26 129 1.6 8.0 0.03 0.18 0.18 76 1010.9
20260903143121 26 51 1.6 8.0 0.03 0.18 0.18 77 1010.7
20260903142620 26 134 3.2 11.3 0.03 0.18 0.18 77 1010.6
20260903142119 26 137 4.8 14.5 0.03 0.18 0.18 76 1010.5
20260903141618 26 51 3.2 14.5 0.03 0.18 0.18 75 1010.5
20260903141119 26 156 6.4 12.9 0.03 0.18 0.18 75 1010.5
20260903140617 26 192 6.4 14.5 0.00 0.15 0.15 77 1010.4
20260903140117 26 221 6.4 14.5 0.00 0.15 0.15 79 1010.3
20260903135617 25 163 4.8 11.3 0.00 0.15 0.15 82 1010.3
20260903135117 25 157 3.2 6.4 0.03 0.15 0.15 84 1010.4
20260903134616 24 205 1.6 6.4 0.03 0.15 0.15 86 1010.3
20260903134116 24 51 1.6 6.4 0.08 0.15 0.15 86 1010.2
20260903133616 23 165 1.6 6.4 0.08 0.15 0.15 86 1010.3
20260903133117 23 142 3.2 6.4 0.10 0.15 0.15 86 1010.3
20260903132616 23 131 3.2 9.7 0.13 0.15 0.15 87 1010.4
20260903132115 23 121 3.2 9.7 0.15 0.15 0.15 87 1010.5
20260903131615 23 193 3.2 11.3 0.15 0.15 0.15 86 1010.5
20260903131115 23 144 6.4 11.3 0.15 0.15 0.15 86 1010.5
20260903130616 23 139 1.6 4.8 0.15 0.15 0.15 86 1010.6
20260903125614 23 162 1.6 4.8 0.15 0.15 0.15 85 1010.6
20260903125113 23 102 1.6 4.8 0.13 0.13 0.15 85 1010.7
20260903124613 23 129 3.2 6.4 0.13 0.13 0.13 84 1010.9
20260903123113 24 279 4.8 11.3 0.05 0.05 0.05 83 1011.3
20260903122113 24 137 0.0 3.2 0.00 0.00 0.00 82 1010.8
20260903121612 24 26 1.6 3.2 0.00 0.00 0.00 81 1010.8
20260903121112 24 9 1.6 3.2 0.00 0.00 0.00 81 1010.9
20260903120613 24 9 1.6 4.8 0.00 0.00 0.00 81 1010.8
20260903120112 24 344 3.2 4.8 0.00 0.00 0.00 80 1010.8
20260903115612 24 325 0.0 6.4 0.00 0.00 0.00 79 1010.7
20260903115112 25 70 3.2 6.4 0.00 0.00 0.00 79 1010.6
20260903114612 25 129 3.2 4.8 0.00 0.00 0.00 79 1010.6
20260903114113 25 105 1.6 4.8 0.00 0.00 0.00 78 1010.6
20260903113611 25 9 0.0 6.4 0.00 0.00 0.00 78 1010.7
20260903113111 25 93 1.6 8.0 0.00 0.00 0.00 77 1010.5
20260903112611 25 111 4.8 8.0 0.00 0.00 0.00 76 1010.4
20260903112111 25 149 3.2 6.4 0.00 0.00 0.00 76 1010.3
20260903111610 25 153 3.2 6.4 0.00 0.00 0.00 75 1010.2
20260903111110 25 146 3.2 8.0 0.00 0.00 0.00 75 1010.2
20260903110610 25 142 4.8 11.3 0.00 0.00 0.00 75 1010.2
20260903105609 25 153 3.2 8.0 0.00 0.00 0.00 74 1010.2
20260903105105 25 178 1.6 4.8 0.00 0.00 0.00 74 1010.2
20260903104605 26 108 1.6 6.4 0.00 0.00 0.00 73 1010.4
20260903104107 26 32 1.6 6.4 0.00 0.00 0.00 72 1010.3
20260903102605 26 93 1.6 9.7 0.00 0.00 0.00 70 1010.6
20260903101604 26 238 6.4 19.3 0.00 0.00 0.00 67 1010.6
20260903101104 27 218 11.3 19.3 0.00 0.00 0.00 65 1010.6
20260903100603 27 194 9.7 17.7 0.00 0.00 0.00 64 1010.7
20260903100103 27 228 8.0 12.9 0.00 0.00 0.00 63 1010.6
20260903095603 27 205 6.4 12.9 0.00 0.00 0.00 63 1010.4
20260903094604 27 188 4.8 16.1 0.00 0.00 0.00 63 1010.0
20260903094105 27 157 6.4 16.1 0.00 0.00 0.00 63 1010.0
20260903093603 27 186 8.0 16.1 0.00 0.00 0.00 63 1009.9
20260903092102 27 178 8.0 16.1 0.00 0.00 0.00 62 1010.2
20260903091602 27 218 6.4 16.1 0.00 0.00 0.00 62 1010.0
20260903090602 27 171 4.8 14.5 0.00 0.00 0.00 61 1010.2
20260903085602 27 178 8.0 14.5 0.00 0.00 0.00 61 1010.0
20260903085102 27 178 9.7 14.5 0.00 0.00 0.00 61 1010.0
20260903084601 27 218 6.4 14.5 0.00 0.00 0.00 61 1010.2
20260903083602 28 134 6.4 16.1 0.00 0.00 0.00 60 1010.2
20260903083101 28 175 6.4 14.5 0.00 0.00 0.00 60 1010.2
20260903082602 28 123 6.4 17.7 0.00 0.00 0.00 59 1010.2
20260903081601 28 207 9.7 20.9 0.00 0.00 0.00 59 1010.2
20260903081101 28 178 8.0 20.9 0.00 0.00 0.00 59 1010.2
20260903080100 28 150 6.4 17.7 0.00 0.00 0.00 59 1010.2
20260903075600 28 168 8.0 17.7 0.00 0.00 0.00 60 1010.3
20260903075101 27 140 6.4 16.1 0.00 0.00 0.00 61 1010.2
20260903074600 27 186 6.4 16.1 0.00 0.00 0.00 61 1010.2
20260903074102 27 134 8.0 14.5 0.00 0.00 0.00 62 1010.2
20260903073600 27 191 6.4 14.5 0.00 0.00 0.00 62 1010.3
20260903073100 27 189 4.8 12.9 0.00 0.00 0.00 62 1010.0
20260903072600 27 111 6.4 11.3 0.00 0.00 0.00 62 1010.2
20260903072100 27 212 4.8 12.9 0.00 0.00 0.00 62 1010.2
20260903071059 28 153 6.4 14.5 0.00 0.00 0.00 61 1010.3
20260903070559 28 221 6.4 12.9 0.00 0.00 0.00 61 1010.3
20260903070100 28 132 6.4 16.1 0.00 0.00 0.00 61 1010.2
20260903065059 28 171 6.4 16.1 0.00 0.00 0.00 61 1010.3
20260903064559 28 184 4.8 11.3 0.00 0.00 0.00 61 1010.2
20260903064100 28 183 6.4 17.7 0.00 0.00 0.00 60 1010.3
20260903063059 28 191 6.4 14.5 0.00 0.00 0.00 60 1010.2
20260903062059 28 128 8.0 16.1 0.00 0.00 0.00 60 1010.3
20260903061559 28 128 8.0 17.7 0.00 0.00 0.00 60 1010.3
20260903061059 28 121 8.0 17.7 0.00 0.00 0.00 60 1010.3
20260903060559 28 141 9.7 16.1 0.00 0.00 0.00 59 1010.3
20260903060058 28 177 8.0 19.3 0.00 0.00 0.00 59 1010.3
20260903055558 28 162 6.4 19.3 0.00 0.00 0.00 59 1010.4
20260903055058 28 157 9.7 17.7 0.00 0.00 0.00 59 1010.4
20260903054559 28 189 6.4 14.5 0.00 0.00 0.00 59 1010.4
20260903054059 28 171 9.7 17.7 0.00 0.00 0.00 59 1010.3
20260903053558 28 182 8.0 17.7 0.00 0.00 0.00 59 1010.3
20260903052057 28 183 9.7 16.1 0.00 0.00 0.00 59 1010.4
20260903051557 28 159 6.4 14.5 0.00 0.00 0.00 59 1010.4
20260903051057 28 146 6.4 14.5 0.00 0.00 0.00 59 1010.4
20260903050557 28 168 6.4 17.7 0.00 0.00 0.00 59 1010.3
20260903050057 28 171 6.4 19.3 0.00 0.00 0.00 59 1010.4
20260903045557 28 201 8.0 19.3 0.00 0.00 0.00 59 1010.3
20260903045057 28 178 6.4 14.5 0.00 0.00 0.00 58 1010.4
20260903044558 28 184 8.0 22.5 0.00 0.00 0.00 58 1010.4
20260903044057 28 177 6.4 22.5 0.00 0.00 0.00 58 1010.4
20260903043056 28 189 6.4 16.1 0.00 0.00 0.00 58 1010.4
20260903042557 28 186 8.0 16.1 0.00 0.00 0.00 58 1010.3
20260903042056 28 160 6.4 16.1 0.00 0.00 0.00 59 1010.4
20260903041556 28 123 8.0 16.1 0.00 0.00 0.00 58 1010.4
20260903041056 28 160 6.4 16.1 0.00 0.00 0.00 58 1010.4
20260903040556 29 165 8.0 16.1 0.00 0.00 0.00 58 1010.4
20260903040055 29 135 6.4 12.9 0.00 0.00 0.00 58 1010.3
20260903035555 29 205 6.4 12.9 0.00 0.00 0.00 58 1010.4
20260903035056 29 153 6.4 12.9 0.00 0.00 0.00 58 1010.3
20260903033556 29 146 8.0 16.1 0.00 0.00 0.00 58 1010.4
20260903033055 29 156 6.4 12.9 0.00 0.00 0.00 58 1010.3
20260903032056 29 175 4.8 11.3 0.00 0.00 0.00 58 1010.2
20260903031555 29 178 4.8 12.9 0.00 0.00 0.00 57 1010.2
20260903031056 29 178 3.2 12.9 0.00 0.00 0.00 57 1010.3
20260903030555 30 175 4.8 11.3 0.00 0.00 0.00 57 1010.3
20260903030055 30 151 6.4 9.7 0.00 0.00 0.00 56 1010.3
20260903025055 30 178 6.4 14.5 0.00 0.00 0.00 56 1010.3
20260903024554 30 175 4.8 14.5 0.00 0.00 0.00 56 1010.2
20260903024054 30 162 6.4 14.5 0.00 0.00 0.00 56 1010.2
20260903023554 30 124 6.4 14.5 0.00 0.00 0.00 56 1010.0
20260903023054 30 146 4.8 9.7 0.00 0.00 0.00 56 1009.9
20260903022553 30 171 4.8 14.5 0.00 0.00 0.00 55 1009.9
20260903021553 30 182 6.4 16.1 0.00 0.00 0.00 55 1009.9
20260903021053 31 178 6.4 16.1 0.00 0.00 0.00 55 1009.9
20260903020553 31 178 4.8 14.5 0.00 0.00 0.00 55 1009.8
20260903020053 31 156 4.8 14.5 0.00 0.00 0.00 55 1009.8
20260903015552 31 0 6.4 14.5 0.00 0.00 0.00 55 1009.6
20260903015053 31 139 6.4 14.5 0.00 0.00 0.00 55 1009.6
20260903014551 31 166 6.4 16.1 0.00 0.00 0.00 55 1009.5
20260903013552 31 183 6.4 12.9 0.00 0.00 0.00 54 1009.4
20260903011550 31 139 4.8 11.3 0.00 0.00 0.00 54 1009.3
20260903011051 32 147 6.4 9.7 0.00 0.00 0.00 54 1009.3
20260903010550 32 142 3.2 9.7 0.00 0.00 0.00 53 1009.3
20260903010050 32 157 4.8 16.1 0.00 0.00 0.00 53 1009.3
20260903005550 32 153 3.2 16.1 0.00 0.00 0.00 52 1009.3
20260903005051 32 137 3.2 9.7 0.00 0.00 0.00 52 1009.3
20260903004550 33 184 4.8 14.5 0.00 0.00 0.00 51 1009.3
20260903004049 33 177 8.0 14.5 0.00 0.00 0.00 50 1009.4
20260903003549 33 182 4.8 14.5 0.00 0.00 0.00 50 1009.4
20260903003050 33 195 6.4 17.7 0.00 0.00 0.00 50 1009.4
20260903002048 33 131 9.7 17.7 0.00 0.00 0.00 49 1009.4
20260903001048 33 191 4.8 16.1 0.00 0.00 0.00 49 1009.4
20260903000548 33 173 6.4 11.3 0.00 0.00 0.00 49 1009.3
20260903000048 34 196 4.8 11.3 0.00 0.00 0.00 49 1009.5
20260902235548 34 163 6.4 16.1 0.00 0.00 0.00 48 1009.5
20260902235050 34 142 6.4 16.1 0.00 0.00 0.00 47 1009.5
20260902234548 34 169 6.4 12.9 0.00 0.00 0.00 48 1009.5
20260902234048 34 193 4.8 14.5 0.00 0.00 0.00 48 1009.5
20260902233548 34 178 6.4 24.1 0.00 0.00 0.00 47 1009.5
20260902233048 35 207 8.0 24.1 0.00 0.00 0.00 48 1009.6
20260902232548 35 168 9.7 22.5 0.00 0.00 0.00 47 1009.5
20260902232047 35 178 8.0 22.5 0.00 0.00 0.00 47 1009.5
20260902231547 35 207 8.0 20.9 0.00 0.00 0.00 47 1009.6
20260902231047 35 234 12.9 25.7 0.00 0.00 0.00 47 1009.6
20260902230546 35 225 9.7 25.7 0.00 0.00 0.00 46 1009.6
20260902230046 35 209 9.7 24.1 0.00 0.00 0.00 46 1009.6
20260902225048 35 225 11.3 25.7 0.00 0.00 0.00 47 1009.7
20260902224546 35 196 8.0 17.7 0.00 0.00 0.00 48 1009.7
20260902223546 35 223 11.3 20.9 0.00 0.00 0.00 47 1009.7
20260902222545 35 238 12.9 24.1 0.00 0.00 0.00 46 1009.6
20260902222044 35 166 9.7 17.7 0.00 0.00 0.00 47 1009.7
20260902221545 35 223 11.3 17.7 0.00 0.00 0.00 48 1009.7
20260902221044 35 229 11.3 25.7 0.00 0.00 0.00 48 1009.6